COSMOS 767

Satellite information

Favourite Embed

Satellite Type and Status

PAYLOADIN ORBIT

Key statistics

Satellite COSMOS 767 at a glance.

Uptime

18356

Days in orbit

Revolutions

≈ 12.5

Per day

Orbit

LEO

Low Earth Orbit

Inclination

74.0

Latest

Satellite identification and parameters

Extended collection of information and parameters for COSMOS 767.

Object identification

Identified? True

Debris? False

Object name: COSMOS 767

International designator: 1975-086G

Object number (NORAD): 8291

Object ID (CCSDS): 8291

Country: COMMONWEALTH OF INDEPENDENT STATES (CIS)

Current information (Y/N): Y

RCS size: MEDIUM

Orbital parameters

Period: 115.336 minutes

Inclination: 74.0088 deg

SMA: 7848.819 km

Apoapsis: 1485.916 km

Periapsis: 1455.451 km

RAAN: 242.2434 deg

Eccentricy: 0.00194077

Argument of periapsis: 35.3747 deg

Mean anomaly: 31.6406 deg

Mean motion: 12.48522379 rev/day

Mean motion (dot): 0.00000005 rev/day2

B* drag term: 0.00014212981 1/REarth

Two-line elements (TLE)

Creation date: Dec. 19, 2025, 2:08 a.m.

Reference frame: TEME

Reference center: EARTH

Epoch: Dec. 18, 2025, 8:01 p.m. UTC

TLE line 0: 0 COSMOS 767

TLE line 1: 1 08291U 75086G 25352.83452625 .00000005 00000-0 14213-3 0 9997

TLE line 2: 2 08291 74.0088 242.2434 0019408 35.3747 31.6406 12.48522379290465

Live tracking on map

Real-time ground track for satellite COSMOS 767.

In-orbit conjunctions

There are no conjunctions computed for COSMOS 767, at the moment. Check back to stay up to date, as we update our databases every day.

Go to all conjunctions

Associated space launch

Military communications satellites

COSMOS 767 was lifted into orbit during the mission ‘Kosmos-3M | Strela-1M 97-104’, on board a Kosmos-3M space rocket.

The launch took place on Sept. 17, 1975, 7:10 a.m. from 132/1 (132L).

For more information about the launch, click the button.

Launch to space Kosmos-3M | Strela-1M 97-104
Kosmos-3M | Strela-1M 97-104

Agency: N/A

Status: Launch Successful

Launch date: Sept. 17, 1975, 7:10 a.m. UTC

Rocket: Kosmos-3M

Launch pad: 132/1 (132L)

Location: Plesetsk Cosmodrome, Russian Federation

...

Latest news about this satellite

There are no fresh news available about this satellite. Check back as we update our databases every day.


Newsletter sign-up

Weekly statistics, charts and insights to help you stay on top of the space industry.